Flag for U.S.A. Weather past 2 weeks in Bridgeport, Connecticut, U.S.A.

Now
57 °F

Overcast.


Feels Like: 53 °F
Forecast: 47 / 63 °F
Wind: 17 mph from North

Location: Sikorsky Memorial Airport

Current Time: Apr 27, 2015 at 9:00:01 PM

Latest Report: Apr 27, 2015 at 7:52 PM


Visibility: 10 mi

Pressure: 29.65 "Hg

Humidity: 46%

Dew point: 36 °F

Location of BridgeportLocation

Historic Weather in Bridgeport — Graph

°F

Bridgeport temperature yesterday

Maximum temperature yesterday: 60 °F (at 5:52 PM)
Minimum temperature yesterday: 39 °F (at 5:52 AM)
Average temperature yesterday: 51 °F

Past Weeks' High & Low Weather Summary

 TemperatureHumidityPressure
High73 °F (Apr 18, 2:52 PM)100% (Apr 20, 5:52 PM)30.50 "Hg (Apr 20, 5:52 PM)
Low34 °F (Apr 25, 3:52 AM)13% (Apr 15, 3:52 PM)29.55 "Hg (Apr 22, 3:52 PM)
Average52 °F58%29.94 "Hg
* Reported Apr 12 7:52 PM — Apr 27 7:52 PM, Bridgeport, Weather by CustomWeather, © 2015

Note: Actual official high and low records may vary slightly from our data, if they occured in-between our weather recording intervals... More about our weather records

Advertising

Bridgeport weather history for previous 24 hours

 ConditionsComfort  
Time TempWeatherWind HumidityBarometerVisibility
7:52 PM
Mon, Apr 27
57 °FOvercast.17 mph46%29.65 "Hg10 mi
6:52 PM59 °FOvercast.16 mph38%29.62 "Hg10 mi
5:52 PM60 °FOvercast.16 mph33%29.60 "Hg10 mi
4:52 PM60 °FOvercast.16 mph35%29.59 "Hg10 mi
3:52 PM61 °FOvercast.18 mph32%29.59 "Hg10 mi
2:52 PM61 °FOvercast.14 mph32%29.60 "Hg10 mi
1:52 PM60 °FOvercast.18 mph35%29.62 "Hg10 mi
12:52 PM61 °FOvercast.16 mph36%29.62 "Hg10 mi
11:52 AM59 °FOvercast.14 mph39%29.63 "Hg10 mi
10:52 AM59 °FBroken clouds.9 mph39%29.64 "Hg10 mi
9:52 AM56 °FScattered clouds.13 mph44%29.65 "Hg10 mi
8:52 AM52 °FOvercast.10 mph53%29.65 "Hg10 mi
7:52 AM50 °FOvercast.8 mph54%29.65 "Hg10 mi
6:52 AM50 °FOvercast.7 mph54%29.65 "Hg10 mi
5:52 AM50 °FOvercast.7 mph52%29.64 "Hg10 mi
4:52 AM50 °FOvercast.7 mph52%29.64 "Hg10 mi
3:52 AM51 °FOvercast.7 mph48%29.64 "Hg10 mi
2:52 AM51 °FOvercast.3 mph48%29.65 "Hg10 mi
1:52 AM52 °FOvercast.9 mph45%29.65 "Hg10 mi
12:52 AM53 °FOvercast.8 mph43%29.65 "Hg10 mi
11:52 PM
Sun, Apr 26
53 °FPassing clouds.10 mph41%29.65 "Hg10 mi
10:52 PM55 °FOvercast.9 mph39%29.65 "Hg10 mi
9:52 PM56 °FOvercast.6 mph37%29.66 "Hg10 mi
Weather by CustomWeather, © 2015

See weather overviewHow to use our weather pages